M0JGD Weather Reports


time (UTC)temp
C
wind
direction
speed
KPH
gust
KPH
rain 1hr
cm
rain 24hr
cm
rain mn
cm
humidity
%
barometer
mb
20260506071557 8 0 0.0 6.4 0.00 0.00 0.00 77 1010.6
20260506061559 8 85 0.0 6.4 0.00 0.00 0.00 80 1010.1
20260506044554 8 0 0.0 0.0 0.00 0.00 0.00 82 1009.9
20260506043053 8 0 0.0 0.0 0.00 0.00 0.00 81 1009.7
20260506041557 8 0 0.0 0.0 0.00 0.00 0.00 80 1009.8
20260506040057 8 0 0.0 0.0 0.00 0.00 0.00 80 1009.7
20260506034557 8 0 0.0 0.0 0.00 0.00 0.00 79 1009.6
20260506033109 8 0 0.0 0.0 0.00 0.00 0.00 79 1009.7
20260506031553 8 0 0.0 0.0 0.00 0.00 0.00 79 1009.7
20260506030100 8 0 0.0 0.0 0.00 0.00 0.00 78 1009.7
20260506024614 9 0 0.0 0.0 0.00 0.00 0.00 78 1009.8
20260506023100 9 0 0.0 0.0 0.00 0.00 0.00 78 1009.7
20260506021559 9 0 0.0 0.0 0.00 0.00 0.00 77 1009.8
20260506020053 9 0 0.0 3.2 0.00 0.00 0.00 76 1010.0
20260506014557 10 92 1.6 3.2 0.00 0.00 0.00 76 1009.9
20260506013100 10 84 0.0 3.2 0.00 0.00 0.00 76 1009.9
20260506011621 10 105 0.0 0.0 0.00 0.00 0.00 77 1009.8
20260506010110 10 107 1.6 6.4 0.00 0.00 0.00 78 1009.8
20260506004557 10 0 0.0 0.0 0.00 0.00 0.00 78 1009.9
20260506003058 10 0 0.0 3.2 0.00 0.00 0.00 77 1009.9
20260506001558 10 0 0.0 0.0 0.00 0.00 0.00 77 1010.0
20260506000101 10 0 0.0 0.0 0.00 0.00 0.00 76 1010.2
20260505234555 10 0 0.0 0.0 0.00 0.00 0.00 74 1010.1
20260505233053 10 0 0.0 0.0 0.00 0.00 0.00 72 1010.0
20260505231555 11 0 0.0 0.0 0.00 0.00 0.00 71 1009.9
20260505230100 11 0 0.0 0.0 0.00 0.00 0.00 68 1010.2
20260505224556 11 0 0.0 0.0 0.00 0.00 0.00 65 1010.2
20260505223055 11 0 0.0 0.0 0.00 0.00 0.00 64 1010.1
20260505221604 11 0 0.0 3.2 0.00 0.00 0.00 64 1010.1
20260505220107 11 86 0.0 3.2 0.00 0.00 0.00 64 1010.2
20260505214555 12 109 1.6 6.4 0.00 0.00 0.00 65 1010.2
20260505213055 12 0 0.0 6.4 0.00 0.00 0.00 66 1010.1
20260505211557 12 103 1.6 4.8 0.00 0.00 0.00 66 1009.9
20260505210057 12 0 0.0 0.0 0.00 0.00 0.00 64 1009.7
20260505204612 12 0 0.0 0.0 0.00 0.00 0.00 63 1009.6
20260505203105 12 0 0.0 0.0 0.00 0.00 0.00 63 1009.6
20260505201601 13 0 0.0 0.0 0.00 0.00 0.00 63 1009.5
20260505194603 13 0 0.0 0.0 0.00 0.00 0.00 59 1009.2
20260505193103 13 0 0.0 0.0 0.00 0.00 0.00 60 1009.1
20260505191556 13 0 0.0 0.0 0.00 0.00 0.00 58 1009.0
20260505190058 13 0 0.0 0.0 0.00 0.00 0.00 57 1009.1
20260505184605 14 0 0.0 0.0 0.00 0.00 0.00 55 1009.0
20260505183058 15 0 0.0 0.0 0.00 0.00 0.00 54 1008.9
20260505181612 15 0 0.0 0.0 0.00 0.00 0.00 52 1008.8
20260505180059 15 0 0.0 0.0 0.00 0.00 0.00 51 1008.9
20260505174556 15 0 0.0 0.0 0.00 0.00 0.00 50 1008.9
20260505173055 15 0 0.0 0.0 0.00 0.00 0.00 50 1009.0
20260505171556 15 0 0.0 0.0 0.00 0.00 0.00 50 1008.9
20260505170056 15 0 0.0 0.0 0.00 0.00 0.00 49 1009.0
20260505164603 15 0 0.0 3.2 0.00 0.00 0.00 49 1009.0
20260505163055 16 98 0.0 3.2 0.00 0.00 0.00 50 1009.1
20260505161559 16 0 0.0 3.2 0.00 0.00 0.00 49 1009.0
20260505153120 16 99 0.0 4.8 0.00 0.00 0.00 50 1009.1
20260505151600 16 0 0.0 1.6 0.00 0.00 0.00 50 1009.0
20260505140104 17 80 0.0 4.8 0.00 0.00 0.00 45 1009.2
20260505124609 18 0 1.6 6.4 0.00 0.00 0.00 51 1009.5
20260505123102 17 90 0.0 4.8 0.00 0.00 0.00 53 1009.5
20260505121611 16 69 0.0 4.8 0.00 0.00 0.00 55 1009.6
20260505120107 15 94 0.0 6.4 0.00 0.00 0.00 59 1009.7
20260505114557 16 64 0.0 3.2 0.00 0.00 0.00 60 1009.8
20260505113113 15 0 0.0 4.8 0.00 0.00 0.00 60 1009.7
20260505111552 15 84 0.0 4.8 0.00 0.00 0.00 62 1009.7
20260505101557 15 5 0.0 4.8 0.00 0.00 0.00 63 1009.9
20260505100057 15 0 1.6 6.4 0.00 0.00 0.00 65 1010.0
20260505094554 15 86 1.6 9.7 0.00 0.00 0.00 63 1010.0
20260505093105 14 98 1.6 16.1 0.00 0.00 0.00 63 1010.1
20260505091554 14 0 0.0 4.8 0.00 0.00 0.00 66 1010.3
20260505090056 13 0 3.2 9.7 0.00 0.00 0.00 66 1010.3
20260505084556 13 0 1.6 6.4 0.00 0.00 0.00 67 1010.3
20260505083104 13 78 1.6 6.4 0.00 0.00 0.00 68 1010.3
20260505081559 13 59 0.0 4.8 0.00 0.00 0.00 70 1010.3
20260505080108 12 0 1.6 8.0 0.00 0.00 0.00 72 1010.4
20260505074554 12 59 1.6 4.8 0.00 0.00 0.00 78 1010.4